HBIMN LSZR-LSZR

Flight info

Callsign HBIMN
Flight time 0h 7m
Altitude 6000
Route LSZR
Aircraft C172/L-V/N

Departure

Time 2026-05-06 14:59
Airport Sankt Gallen Altenrhein Airport (LSZR)

Arrival

Time 2026-05-06 15:06
Airport Sankt Gallen Altenrhein Airport (LSZR)
Time Latitude Longitude Altitude Speed Heading
2026-05-06 14:45 47.48664 9.56481 1310 ft 0 kts 102°
2026-05-06 14:50 47.48652 9.56489 1310 ft 3 kts 197°
2026-05-06 14:51 47.48631 9.56480 1310 ft 5 kts 190°
2026-05-06 14:51 47.48612 9.56493 1310 ft 4 kts 98°
2026-05-06 14:51 47.48607 9.56535 1310 ft 7 kts 98°
2026-05-06 14:51 47.48599 9.56619 1310 ft 7 kts 96°
2026-05-06 14:52 47.48595 9.56670 1310 ft 5 kts 98°
2026-05-06 14:52 47.48591 9.56710 1310 ft 5 kts 98°
2026-05-06 14:52 47.48587 9.56751 1310 ft 1 kts 98°
2026-05-06 14:52 47.48585 9.56767 1310 ft 5 kts 98°
2026-05-06 14:53 47.48578 9.56836 1310 ft 6 kts 98°
2026-05-06 14:53 47.48575 9.56870 1310 ft 2 kts 99°
2026-05-06 14:53 47.48568 9.56934 1310 ft 9 kts 100°
2026-05-06 14:53 47.48560 9.57009 1310 ft 5 kts 99°
2026-05-06 14:54 47.48556 9.57043 1310 ft 4 kts 103°
2026-05-06 14:54 47.48537 9.57083 1310 ft 6 kts 154°
2026-05-06 14:54 47.48500 9.57080 1310 ft 5 kts 187°
2026-05-06 14:54 47.48476 9.57075 1310 ft 1 kts 187°
2026-05-06 14:55 47.48473 9.57075 1310 ft 0 kts 188°
2026-05-06 14:57 47.48462 9.57073 1310 ft 4 kts 188°
2026-05-06 14:57 47.48433 9.57067 1311 ft 3 kts 187°
2026-05-06 14:57 47.48423 9.57065 1312 ft 4 kts 188°
2026-05-06 14:57 47.48403 9.57030 1312 ft 7 kts 272°
2026-05-06 14:58 47.48410 9.56969 1310 ft 4 kts 279°
2026-05-06 14:58 47.48417 9.56902 1310 ft 21 kts 278°
2026-05-06 14:58 47.48463 9.56453 1309 ft 63 kts 278°
2026-05-06 14:58 47.48530 9.55795 1503 ft 65 kts 277°
2026-05-06 14:59 47.48606 9.55102 1672 ft 73 kts 277°
2026-05-06 14:59 47.48664 9.54334 1927 ft 77 kts 265°
2026-05-06 14:59 47.48283 9.53863 2198 ft 88 kts 178°
2026-05-06 14:59 47.47899 9.54619 2352 ft 105 kts 99°
2026-05-06 15:00 47.47819 9.55774 2450 ft 120 kts 95°
2026-05-06 15:00 47.47804 9.56471 2503 ft 127 kts 92°
2026-05-06 15:00 47.47764 9.57759 2681 ft 126 kts 99°
2026-05-06 15:00 47.47686 9.59098 2757 ft 127 kts 100°
2026-05-06 15:01 47.47582 9.60295 3105 ft 117 kts 105°
2026-05-06 15:01 47.47443 9.61502 3276 ft 121 kts 117°
2026-05-06 15:01 47.47160 9.62766 3369 ft 138 kts 100°
2026-05-06 15:01 47.46954 9.64009 3536 ft 137 kts 123°
2026-05-06 15:02 47.46291 9.64850 3722 ft 116 kts 166°
2026-05-06 15:02 47.45519 9.65245 3725 ft 127 kts 143°
2026-05-06 15:02 47.45194 9.66522 3566 ft 138 kts 70°
2026-05-06 15:02 47.45856 9.67473 3198 ft 139 kts 20°
2026-05-06 15:03 47.46672 9.67978 3165 ft 129 kts 20°
2026-05-06 15:03 47.47419 9.68404 3168 ft 107 kts 358°
2026-05-06 15:03 47.47993 9.67912 2929 ft 95 kts 277°
2026-05-06 15:03 47.47787 9.66876 2572 ft 106 kts 262°
2026-05-06 15:04 47.47736 9.65753 2487 ft 110 kts 268°
2026-05-06 15:04 47.47687 9.64662 2541 ft 105 kts 273°
2026-05-06 15:04 47.47740 9.63568 2500 ft 108 kts 279°
2026-05-06 15:04 47.47831 9.62493 2388 ft 101 kts 274°
2026-05-06 15:05 47.47947 9.61503 2229 ft 97 kts 282°
2026-05-06 15:05 47.48034 9.60590 2062 ft 85 kts 276°
2026-05-06 15:05 47.48101 9.59812 1897 ft 72 kts 281°
2026-05-06 15:05 47.48184 9.59151 1724 ft 60 kts 280°
2026-05-06 15:06 47.48248 9.58512 1627 ft 67 kts 275°
2026-05-06 15:06 47.48320 9.57876 1479 ft 62 kts 279°
2026-05-06 15:06 47.48376 9.57269 1370 ft 57 kts 280°
2026-05-06 15:06 47.48435 9.56716 1309 ft 46 kts 281°
2026-05-06 15:07 47.48473 9.56370 1309 ft 29 kts 279°
2026-05-06 15:07 47.48505 9.56072 1311 ft 26 kts 280°
2026-05-06 15:07 47.48525 9.55880 1313 ft 15 kts 277°
2026-05-06 15:07 47.48545 9.55699 1313 ft 24 kts 281°
2026-05-06 15:08 47.48566 9.55490 1313 ft 15 kts 279°
2026-05-06 15:08 47.48582 9.55344 1312 ft 12 kts 285°
2026-05-06 15:08 47.48652 9.55334 1310 ft 11 kts
2026-05-06 15:08 47.48720 9.55348 1310 ft 9 kts 24°
2026-05-06 15:09 47.48724 9.55428 1310 ft 13 kts 97°
2026-05-06 15:09 47.48703 9.55654 1310 ft 29 kts 99°
2026-05-06 15:09 47.48674 9.55925 1310 ft 26 kts 99°
2026-05-06 15:09 47.48647 9.56173 1310 ft 23 kts 100°
2026-05-06 15:10 47.48628 9.56357 1310 ft 13 kts 102°
2026-05-06 15:10 47.48613 9.56477 1310 ft 10 kts 96°
2026-05-06 15:10 47.48607 9.56551 1310 ft 3 kts 98°
2026-05-06 15:10 47.48608 9.56580 1310 ft 4 kts 348°
2026-05-06 15:11 47.48611 9.56510 1310 ft 8 kts 281°
2026-05-06 15:11 47.48633 9.56481 1310 ft 0 kts 13°
2026-05-06 15:11 47.48646 9.56486 1310 ft 7 kts 13°
2026-05-06 15:11 47.48665 9.56478 1310 ft 0 kts 272°